Regional Weather Roundup
Issued by NWS Newport/Morehead, NC

Current Version | Previous Version | Graphics & Text | Print | Product List | Glossary Off
Versions: 1 2 3 4 5 6 7 8 9 10 11 12 13 14 15 16 17 18 19 20 21 22 23 24 25 26 27 28 29 30 31 32 33 34 35 36 37 38 39 40 41 42 43 44 45 46 47 48 49 50

000
ASUS42 KMHX 291422
RWRMHX
WEATHER ROUNDUP FOR EASTERN NORTH CAROLINA
NATIONAL WEATHER SERVICE NEWPORT/MOREHEAD CITY NC
1000 AM EDT TUE JUL 29 2014

NOTE: "FAIR" INDICATES FEW OR NO CLOUDS BELOW 12,000 FEET
WITH NO SIGNIFICANT WEATHER AND/OR OBSTRUCTIONS TO VISIBILITY

NCZ015>017-031-032-045>047-102-103-291500-
NORTH COAST

CITY           SKY/WX    TMP DP  RH WIND       PRES   REMARKS
EDENTON        SUNNY     74  64  71 N6        29.92S
ELIZABETH CITY CLOUDY    75  64  68 N8        29.91S
KITTY HAWK     SUNNY     76  66  70 N6        29.89S
MANTEO         NOT AVBL

$$

NCZ045>047-081-094-103-104-291500-
CENTRAL COAST

CITY           SKY/WX    TMP DP  RH WIND       PRES   REMARKS
FRISCO         SUNNY     81  67  62 NE8       29.88S
SWANQUARTER      N/A     77 N/A N/A N3G13     29.85S

$$

NCZ095-097-098-100-101-291500-
SOUTHERN COAST

CITY           SKY/WX    TMP DP  RH WIND       PRES   REMARKS
BEAUFORT       SUNNY     79  67  66 N12       29.89R
CEDAR ISLAND     N/A     77 N/A N/A N13       29.94R
JACKSONVILLE   SUNNY     76  63  64 N9        29.90S
NEWPORT        NOT AVBL
PINEY ISLAND   SUNNY     78  68  71 N15       29.89S
WILMINGTON     SUNNY     78  63  59 NE12      29.90S


$$

NCZ011>013-027>030-043-044-078>080-089-090>093-098-291500-
COASTAL PLAIN

CITY           SKY/WX    TMP DP  RH WIND       PRES   REMARKS
AHOSKIE        SUNNY     71  58  64 N10       29.94S
CLINTON        MOSUNNY   76  63  62 NE5       29.94S
ELIZABETHTOWN  SUNNY     77  62  59 CALM      29.93S
GOLDSBORO      MOSUNNY   74  64  70 NE8       29.92S
GREENVILLE     MOSUNNY   73  61  64 NE9       29.95S
HAVELOCK       MOSUNNY   77  64  64 N12       29.90S
KENANSVILLE    SUNNY     74  60  60 NE5       29.94S
KINSTON        SUNNY     73  61  64 NE9       29.94S
NEW BERN       SUNNY     76  63  64 N10       29.92S
RICHLANDS      SUNNY     75  61  60 N10       29.92R
ROANOKE RAPIDS NOT AVBL
ROCKY MOUNT    PTSUNNY   73  60  63 N10       29.94S
WASHINGTON     SUNNY     73  62  66 N8        29.92F
WHITEVILLE     SUNNY     75  63  66 N3        29.92S

$$

AMZ130-135-150-152-154-156-158-170-250-252-270-ANZ085-086-088-633-658-670-291500-
MARINE OBSERVATIONS

STATION/POSITION TIME  TEMP    WIND        PRES    WAVE   SWELL
                       AIR SEA DIR/SP/G            HT/PER HT/PER
                 (UTC) (F)     (DEG/KT/KT) (MB)    (FT/S) (FT/S)
CHESAPEAKE LIGHT NOT AVBL
BUOY 44014       1400   74 78  360/ 10/ 12 1011.9    3/ 5   3/ 5
DUCK             1400   71 62  350/ 11/ 12 1011.8
2E DUCK          1400                        N/A     3/ 4
OREGON INLET     1400   76 78   10/ 10/ 12 1012.2
BUOY 44095       1400      79                N/A     3/ 8
20E OREGON INLET NOT AVBL
HATTERAS CG      1400   78 80   30/  9/ 14 1012.2
DIAMOND BUOY     1400          VRB 12/ 14  1011.4    3/ 8   2/ 8
CAPE LOOKOUT     1400   78      20/ 12/ 16 1011.8
BEAUFORT LAB     1400   77 81   10/ 11/ 15 1011.7
30 SE NEW RIVER  1400   77 81   20/ 14/ 17 1011.8    4/ 6
5 SE WRIGHTSVILL 1400   73 81   10/ 14/ 16   N/A
BUOY 41002       1348   74 80  160/  8/ 12 1014.1    6/ 7   5/ 7
BUOY 41004       1400   82 83   40/ 14/ 14 1010.7    4/ 6   2/ 8

$$


USA.gov is the U.S. government's official web portal to all federal, state and local government web resources and services.